This is the latest recevied weather packets stored in our database for station/object KE1THD. If no packets are shown the sender has not sent any weather packets the latest 10 day(s).
| Time | Temp. | Humidity | Pressure | Rain* | Wind** | Luminosity | Snow |
|---|---|---|---|---|---|---|---|
| 1778070814 | 6.11° C | 61% | 1015.4 hPa | 0 mm | - | 98 W/m² | - |
| 1778070511 | 6.11° C | 61% | 1015.3 hPa | 0 mm | - | 88 W/m² | - |
| 1778070208 | 5.56° C | 61% | 1015.2 hPa | 0 mm | - | 84 W/m² | - |
| 1778069906 | 5.56° C | 62% | 1015.2 hPa | 0 mm | - | 78 W/m² | - |
| 1778069603 | 5.56° C | 62% | 1014.8 hPa | 0 mm | - | 75 W/m² | - |
| 1778069300 | 5.56° C | 62% | 1014.8 hPa | 0 mm | - | 65 W/m² | - |
| 1778068998 | 5.56° C | 62% | 1014.7 hPa | 0 mm | - | 57 W/m² | - |
| 1778068695 | 5.56° C | 62% | 1014.4 hPa | 0 mm | - | 57 W/m² | - |
| 1778068393 | 5.56° C | 63% | 1014.5 hPa | 0 mm | - | 52 W/m² | - |
| 1778068091 | 5.56° C | 62% | 1014.4 hPa | 0 mm | - | 43 W/m² | - |
| 1778067788 | 5.56° C | 62% | 1014.2 hPa | 0 mm | - | 42 W/m² | - |
| 1778067487 | 5° C | 63% | 1014.1 hPa | 0 mm | - | 36 W/m² | - |
| 1778067184 | 5° C | 64% | 1013.9 hPa | 0 mm | - | 35 W/m² | - |
| 1778066881 | 5° C | 64% | 1013.6 hPa | 0 mm | - | 31 W/m² | - |
| 1778066578 | 5° C | 65% | 1013.5 hPa | 0 mm | - | 27 W/m² | - |
| 1778066275 | 5° C | 65% | 1013.4 hPa | 0 mm | - | 20 W/m² | - |
| 1778065973 | 5° C | 65% | 1013.2 hPa | 0 mm | - | 12 W/m² | - |
| 1778065670 | 5° C | 65% | 1013.3 hPa | 0 mm | - | 9 W/m² | - |
| 1778065367 | 5° C | 65% | 1013.3 hPa | 0 mm | - | 5 W/m² | - |
| 1778065064 | 5° C | 66% | 1013.4 hPa | 0 mm | - | 3 W/m² | - |
| 1778064761 | 5° C | 66% | 1013.2 hPa | 0 mm | - | 2 W/m² | - |
| 1778064458 | 5° C | 66% | 1013.2 hPa | 0 mm | - | 0 W/m² | - |
| 1778064156 | 5° C | 65% | 1013 hPa | 0 mm | - | 0 W/m² | - |
| 1778063853 | 5° C | 64% | 1013.3 hPa | 0 mm | - | 0 W/m² | - |
| 1778063550 | 5° C | 65% | 1013.1 hPa | 0 mm | - | 0 W/m² | - |
* Rain latest hour (hover to see other rain measurements)
** Current wind speed in m/s (hover to see current wind gust speed)